DW4063 Weather Reports


Display with metric or nautical units.
time (UTC)temp
F
wind
direction
speed
MPH
gust
MPH
rain 1hr
in
rain 24hr
in
rain mn
in
humidity
%
barometer
mb
20260903083035 75 300 0.0 0.0 0.00 0.00 0.00 93 1014.4
20260903081511 75 300 0.0 0.0 0.00 0.00 0.00 93 1014.5
20260903080029 75 300 0.0 0.0 0.00 0.00 0.00 93 1014.4
20260903074528 75 300 0.0 0.0 0.00 0.00 0.00 93 1014.4
20260903073024 75 300 0.0 0.0 0.00 0.00 0.00 93 1014.4
20260903071519 75 300 0.0 0.0 0.00 0.00 0.00 93 1014.4
20260903070013 75 300 0.0 0.0 0.00 0.00 0.00 92 1014.5
20260903064532 76 300 0.0 0.0 0.00 0.00 0.00 92 1014.5
20260903063030 76 300 0.0 0.0 0.00 0.00 0.00 92 1014.5
20260903061532 76 300 0.0 0.0 0.00 0.00 0.00 92 1014.5
20260903060029 76 300 0.0 0.0 0.00 0.00 0.00 92 1014.6
20260903054534 76 300 0.0 0.0 0.00 0.00 0.00 91 1014.7
20260903053017 77 300 0.0 0.0 0.00 0.00 0.00 91 1014.5
20260903051533 77 300 0.0 0.0 0.00 0.00 0.00 91 1014.5
20260903050039 77 300 0.0 0.0 0.00 0.00 0.00 90 1014.4
20260903044530 77 300 0.0 0.0 0.00 0.00 0.00 90 1014.3
20260903043034 78 300 0.0 0.0 0.00 0.00 0.00 89 1014.4
20260903041524 78 300 0.0 0.0 0.00 0.00 0.00 89 1014.3
20260903040017 79 300 0.0 0.0 0.00 0.00 0.00 88 1014.4
20260903034531 79 300 0.0 0.0 0.00 0.00 0.00 87 1014.3
20260903033034 80 300 0.0 0.0 0.00 0.00 0.00 86 1014.2
20260903031531 80 300 0.0 0.0 0.00 0.00 0.00 85 1014.1
20260903030030 81 232 0.0 0.0 0.00 0.00 0.00 84 1014.2
20260903024527 82 232 0.0 0.0 0.00 0.00 0.00 82 1014.2
20260903023034 83 232 0.0 0.0 0.00 0.00 0.00 80 1014.1
20260903021534 84 232 0.0 2.0 0.00 0.00 0.00 77 1014.0
20260903020036 85 254 0.0 2.0 0.00 0.00 0.00 76 1013.9
20260903014533 86 245 0.0 2.0 0.00 0.00 0.00 74 1013.9
20260903013032 86 213 0.0 3.0 0.00 0.00 0.00 72 1013.7
20260903011528 87 236 0.0 2.0 0.00 0.00 0.00 72 1013.5
20260903010028 87 209 0.0 3.0 0.00 0.00 0.00 71 1013.4
20260903004545 87 232 0.0 3.0 0.00 0.00 0.00 70 1013.3
20260903003030 88 247 0.0 2.0 0.00 0.00 0.00 70 1013.3
20260903001531 89 254 0.0 3.0 0.00 0.00 0.00 68 1013.4
20260903000043 90 273 0.0 2.0 0.00 0.00 0.00 66 1013.6
20260902234534 90 252 0.0 3.0 0.00 0.00 0.00 63 1013.6
20260902233028 91 206 1.0 5.0 0.00 0.00 0.00 61 1013.5
20260902231508 91 251 1.0 4.0 0.00 0.00 0.00 61 1013.5
20260902230006 92 183 1.0 8.0 0.00 0.00 0.00 61 1013.6
20260902224508 93 250 0.0 6.0 0.00 0.00 0.00 58 1013.6
20260902223010 93 284 0.0 3.0 0.00 0.00 0.00 56 1013.7
20260902221506 94 233 1.0 5.0 0.00 0.00 0.00 54 1013.8
20260902220008 95 334 1.0 8.0 0.00 0.00 0.00 53 1013.7
20260902214515 96 225 1.0 5.0 0.00 0.00 0.00 51 1013.8
20260902213006 96 331 1.0 9.0 0.00 0.00 0.00 51 1013.9
20260902211508 96 195 0.0 4.0 0.00 0.00 0.00 52 1013.9
20260902210010 96 321 2.0 9.0 0.00 0.00 0.00 50 1013.9
20260902204510 96 257 0.0 6.0 0.00 0.00 0.00 50 1014.0
20260902203007 97 219 1.0 7.0 0.00 0.00 0.00 49 1013.9
20260902201534 96 304 0.0 4.0 0.00 0.00 0.00 54 1014.0
20260902200028 97 198 2.0 5.0 0.00 0.00 0.00 50 1014.2
20260902194533 95 193 1.0 7.0 0.00 0.00 0.00 53 1014.2
20260902193021 94 325 1.0 6.0 0.00 0.00 0.00 54 1014.3
20260902191534 94 355 1.0 4.0 0.00 0.00 0.00 51 1014.5
20260902190035 94 201 0.0 4.0 0.00 0.00 0.00 58 1014.6
20260902184537 95 269 0.0 4.0 0.00 0.00 0.00 54 1014.6
20260902183030 95 225 1.0 4.0 0.00 0.00 0.00 54 1014.7
20260902181526 94 299 1.0 5.0 0.00 0.00 0.00 56 1014.8
20260902180018 93 236 1.0 5.0 0.00 0.00 0.00 55 1015.0
20260902174544 92 173 2.0 7.0 0.00 0.00 0.00 57 1015.0
20260902173035 91 299 0.0 3.0 0.00 0.00 0.00 60 1014.9
20260902171506 90 217 0.0 3.0 0.00 0.00 0.00 62 1015.0
20260902170004 89 294 1.0 4.0 0.00 0.00 0.00 63 1015.2
20260902164526 88 208 0.0 3.0 0.00 0.00 0.00 66 1015.3
20260902163018 87 230 0.0 3.0 0.00 0.00 0.00 66 1015.4
20260902161526 86 198 0.0 4.0 0.00 0.00 0.00 67 1015.5
20260902160011 86 229 1.0 5.0 0.00 0.00 0.00 69 1015.7
20260902154514 85 229 1.0 4.0 0.00 0.00 0.00 71 1015.8
20260902153014 84 263 0.0 4.0 0.00 0.00 0.00 72 1015.8
20260902151523 84 176 0.0 5.0 0.00 0.00 0.00 73 1015.8
20260902150023 83 283 1.0 4.0 0.00 0.00 0.00 73 1015.5
20260902144525 82 305 0.0 2.0 0.00 0.00 0.00 75 1015.5
20260902143015 81 235 0.0 2.0 0.00 0.00 0.00 77 1015.6
20260902141515 80 276 0.0 2.0 0.00 0.00 0.00 79 1015.6
20260902140009 79 218 0.0 2.0 0.00 0.00 0.00 81 1015.6
20260902134530 78 227 0.0 2.0 0.00 0.00 0.00 85 1015.6
20260902133040 76 263 0.0 2.0 0.00 0.00 0.00 88 1015.7
20260902131526 75 193 0.0 2.0 0.00 0.00 0.00 90 1015.8
20260902130025 74 205 1.0 3.0 0.00 0.00 0.00 92 1016.0
20260902124511 73 229 0.0 0.0 0.00 0.00 0.00 93 1015.8
20260902123028 73 229 0.0 2.0 0.00 0.00 0.00 94 1015.8
20260902121526 72 229 0.0 0.0 0.00 0.00 0.00 94 1015.7
20260902120028 72 229 0.0 0.0 0.00 0.00 0.00 93 1015.7
20260902114533 72 229 0.0 0.0 0.00 0.00 0.00 93 1015.6
20260902113022 72 229 0.0 0.0 0.00 0.00 0.00 93 1015.5
20260902111518 72 229 0.0 1.0 0.00 0.00 0.00 93 1015.6
20260902110030 72 229 0.0 0.0 0.00 0.00 0.00 93 1015.8
20260902104537 72 229 0.0 0.0 0.00 0.00 0.00 93 1015.8
20260902103031 72 229 0.0 0.0 0.00 0.00 0.00 93 1015.6
20260902101535 72 229 0.0 0.0 0.00 0.00 0.00 93 1015.6
20260902100025 72 229 0.0 0.0 0.00 0.00 0.00 93 1015.6
20260902094521 72 229 0.0 0.0 0.00 0.00 0.00 93 1015.5
20260902093030 73 229 0.0 0.0 0.00 0.00 0.00 93 1015.5
20260902091537 73 229 0.0 0.0 0.00 0.00 0.00 93 1015.3
20260902090034 73 229 0.0 0.0 0.00 0.00 0.00 92 1015.3
20260902084529 73 229 0.0 0.0 0.00 0.00 0.00 92 1015.3